Regional Weather Roundup
Issued by NWS Newport/Morehead, NC

Current Version | Previous Version | Graphics & Text | Print | Product List | Glossary On
Versions: 1 2 3 4 5 6 7 8 9 10 11 12 13 14 15 16 17 18 19 20 21 22 23 24 25 26 27 28 29 30 31 32 33 34 35 36 37 38 39 40 41 42 43 44 45 46 47 48 49 50
366 ASUS42 KMHX 250025 RWRMHX WEATHER ROUNDUP FOR EASTERN NORTH CAROLINA NATIONAL WEATHER SERVICE NEWPORT/MOREHEAD CITY NC 800 PM EDT MON APR 24 2017 NOTE: "FAIR" INDICATES FEW OR NO CLOUDS BELOW 12,000 FEET WITH NO SIGNIFICANT WEATHER AND/OR OBSTRUCTIONS TO VISIBILITY NCZ015>017-031-032-045>047-102-103-250100- NORTH COAST CITY SKY/WX TMP DP RH WIND PRES REMARKS EDENTON CLOUDY 69 64 84 E7 29.78S ELIZABETH CITY CLOUDY 67 63 87 E9 29.80S KITTY HAWK CLOUDY 64 59 85 CALM 29.80R MANTEO CLOUDY 67 58 71 SE13G20 29.80S $$ NCZ045>047-081-094-103-104-250100- CENTRAL COAST CITY SKY/WX TMP DP RH WIND PRES REMARKS FRISCO LGT RAIN 70 63 78 SE31G43 29.74F $$ NCZ095-097-098-100-101-250100- SOUTHERN COAST CITY SKY/WX TMP DP RH WIND PRES REMARKS BEAUFORT CLOUDY 69 67 93 SE15G26 29.67F CEDAR ISLAND NOT AVBL JACKSONVILLE LGT RAIN 70 68 93 SE14 29.64F FOG PINEY ISLAND CLOUDY N/A N/A N/A E17G26 29.69F WILMINGTON RAIN 67 67 100 CALM 29.62F $$ NCZ011>013-027>030-043-044-078>080-089-090>093-098-250100- COASTAL PLAIN CITY SKY/WX TMP DP RH WIND PRES REMARKS AHOSKIE N/A 63 63 99 NE7 29.79R CLINTON LGT RAIN 65 65 100 E3 29.65S ELIZABETHTOWN RAIN 61 61 100 NW7 29.67R GOLDSBORO LGT RAIN 65 65 100 E15G23 29.65F FOG GREENVILLE RAIN 64 64 100 NE12G17 29.75S HAVELOCK HVY RAIN 68 65 90 SE16G28 29.69F VSB 1/2 KENANSVILLE RAIN 66 64 94 CALM 29.66S VSB 1 KINSTON HVY RAIN 66 64 94 NE12 29.69F NEW BERN HVY RAIN 66 66 100 E10G17 29.69F FOG RICHLANDS HVY RAIN 66 66 100 E7 29.65F FOG ROCKY MOUNT HVY RAIN 65 65 100 E5 29.72F FOG WASHINGTON HVY RAIN 65 64 97 E16 29.73S WHITEVILLE RAIN 61 60 96 CALM 29.65R $$ AMZ130-135-150-152-154-156-158-170-250-252-270-ANZ085-086-088-633-658-670-250100- MARINE OBSERVATIONS STATION/POSITION TIME TEMP WIND PRES WAVE SWELL AIR SEA DIR/SP/G HT/PER HT/PER (UTC) (F) (DEG/KT/KT) (MB) (FT/S) (FT/S) CHESAPEAKE LIGHT NOT AVBL 64 E VA BEACH 2350 60 54 90/ 10/ 12 1011.3 6/ 7 7/ 7 DUCK 0000 63 59 90/ 18/ 20 1008.8 2 E DUCK 0000 60 N/A 6/ 7 2/11 OREGON INLET 0000 65 61 100/ 10/ 14 1008.6 13E OREGON INLT 2348 56 N/A 9/ 8 8/ 8 HATTERAS CG 0000 72 67 120/ 20/ 28 1006.5 DIAMOND BUOY 2350 75 79 110/ 33/ 41 1005.8 12/ 8 CAPE LOOKOUT 0000 71 130/ 32/ 37 1004.3 BEAUFORT LAB 0000 70 64 130/ 19/ 26 1003.8 30 SE NEW RVR IN 0008 71 140/ 21/ 33 1003.2 30 SE NEW RVR IN 0013 71 N/A 14/ 9 3/11 27 SE WRIGHTSVLE 0008 67 72 200/ 17/ 25 1002.4 5 SE WRIGHTSVLE 0008 66 69 220/ 4/ 10 1003.2 225 S CAPE HAT 2350 74 75 190/ 17/ 19 1001.2 13/ 8 10/ 8 41 SE CHARLESTON 0010 72 73 230/ 10/ 14 1002.8 $$

USA.gov is the U.S. government's official web portal to all federal, state and local government web resources and services.